• In Belarus
  • List of Countries
  • For 7 days
  • Water Temperature
  • Weather Map
  • Weather Widgets
  • user-avatar
    Login

    Hourly Weather Prutz

    Today, 29 May, Friday

    Time Temperature Precipitation Wind Pressure Humidity
    00:00 +3°C° 0.1 mm 1 mps 637 mmHg 96%
    01:00 +3°C° 0 mm 2 mps 637 mmHg 96%
    02:00 +3°C° 0.2 mm 1 mps 636 mmHg 96%
    03:00 +2°C° 0.2 mm 1 mps 636 mmHg 95%
    04:00 +2°C° 0.2 mm 1 mps 636 mmHg 95%
    05:00 +3°C° 0 mm 1 mps 636 mmHg 90%
    06:00 +4°C° 0 mm 1 mps 636 mmHg 86%
    07:00 +5°C° 0 mm 1 mps 637 mmHg 82%
    08:00 +6°C° 0 mm 1 mps 637 mmHg 73%
    09:00 +8°C° 0 mm 1 mps 637 mmHg 64%
    10:00 +8°C° 0 mm 2 mps 637 mmHg 55%
    11:00 +9°C° 0 mm 2 mps 637 mmHg 53%
    12:00 +10°C° 0 mm 2 mps 637 mmHg 51%
    13:00 +12°C° 0 mm 2 mps 637 mmHg 48%
    14:00 +12°C° 0 mm 2 mps 637 mmHg 49%
    15:00 +12°C° 0 mm 2 mps 636 mmHg 51%
    16:00 +11°C° 0 mm 3 mps 636 mmHg 52%
    17:00 +10°C° 0 mm 2 mps 636 mmHg 59%
    18:00 +9°C° 0 mm 2 mps 635 mmHg 67%
    19:00 +8°C° 0 mm 2 mps 635 mmHg 74%
    20:00 +6°C° 0 mm 2 mps 634 mmHg 81%
    21:00 +5°C° 0 mm 1 mps 634 mmHg 87%
    22:00 +3°C° 0 mm 1 mps 633 mmHg 94%
    23:00 +3°C° 0 mm 1 mps 633 mmHg 93%

    Tomorrow, 30 May, Saturday

    Time Temperature Precipitation Wind Pressure Humidity
    00:00 +3°C° 0 mm 1 mps 633 mmHg 92%
    01:00 +3°C° 0 mm 1 mps 633 mmHg 91%
    02:00 +3°C° 0 mm 1 mps 633 mmHg 91%
    03:00 +2°C° 0 mm 1 mps 633 mmHg 91%
    04:00 +1°C° 0 mm 0 mps 633 mmHg 91%
    05:00 +4°C° 0 mm 1 mps 633 mmHg 86%
    06:00 +6°C° 0 mm 1 mps 634 mmHg 81%
    07:00 +8°C° 0 mm 1 mps 634 mmHg 76%
    08:00 +9°C° 0 mm 1 mps 634 mmHg 72%
    09:00 +9°C° 0 mm 2 mps 634 mmHg 68%
    10:00 +9°C° 0 mm 2 mps 635 mmHg 64%
    11:00 +10°C° 0.1 mm 2 mps 634 mmHg 63%
    12:00 +10°C° 0.1 mm 2 mps 634 mmHg 63%
    13:00 +11°C° 0.1 mm 3 mps 634 mmHg 62%
    14:00 +10°C° 0.1 mm 3 mps 634 mmHg 63%
    15:00 +10°C° 0.1 mm 3 mps 634 mmHg 64%
    16:00 +10°C° 0.1 mm 3 mps 634 mmHg 65%
    17:00 +9°C° 0.1 mm 3 mps 633 mmHg 70%
    18:00 +8°C° 0.1 mm 2 mps 633 mmHg 76%
    19:00 +7°C° 0.1 mm 2 mps 633 mmHg 81%
    20:00 +6°C° 0 mm 2 mps 633 mmHg 86%
    21:00 +6°C° 0 mm 1 mps 633 mmHg 91%
    22:00 +5°C° 0 mm 1 mps 633 mmHg 96%
    23:00 +5°C° 0 mm 1 mps 633 mmHg 95%

    Day after tomorrow, 31 May, Sunday

    Time Temperature Precipitation Wind Pressure Humidity
    00:00 +3°C° 0 mm 0 mps 633 mmHg 95%
    01:00 +3°C° 0 mm 0 mps 632 mmHg 95%
    02:00 +3°C° 0 mm 0 mps 632 mmHg 93%
    03:00 +3°C° 0 mm 0 mps 633 mmHg 92%
    04:00 +3°C° 0 mm 0 mps 633 mmHg 90%
    05:00 +4°C° 0 mm 0 mps 633 mmHg 86%
    06:00 +5°C° 0 mm 0 mps 633 mmHg 81%
    07:00 +6°C° 0 mm 0 mps 634 mmHg 77%
    08:00 +9°C° 0 mm 1 mps 634 mmHg 70%
    09:00 +10°C° 0 mm 1 mps 634 mmHg 64%
    10:00 +12°C° 0 mm 2 mps 635 mmHg 58%
    11:00 +12°C° 0 mm 2 mps 635 mmHg 58%
    12:00 +12°C° 0 mm 2 mps 635 mmHg 58%
    13:00 +12°C° 0 mm 3 mps 634 mmHg 58%
    14:00 +12°C° 0.1 mm 3 mps 634 mmHg 60%
    15:00 +12°C° 0.1 mm 3 mps 634 mmHg 62%
    16:00 +11°C° 0.1 mm 3 mps 634 mmHg 64%
    17:00 +11°C° 0 mm 3 mps 634 mmHg 69%
    18:00 +10°C° 0 mm 2 mps 634 mmHg 73%
    19:00 +9°C° 0 mm 2 mps 634 mmHg 77%
    20:00 +7°C° 0 mm 2 mps 633 mmHg 83%
    21:00 +6°C° 0 mm 1 mps 633 mmHg 89%
    22:00 +4°C° 0 mm 1 mps 633 mmHg 95%
    23:00 +4°C° 0 mm 1 mps 633 mmHg 94%

    1 June, Monday

    Time Temperature Precipitation Wind Pressure Humidity
    00:00 +4°C° 0 mm 1 mps 633 mmHg 93%
    01:00 +2°C° 0 mm 0 mps 632 mmHg 92%
    02:00 +2°C° 0 mm 0 mps 632 mmHg 90%
    03:00 +2°C° 0 mm 0 mps 632 mmHg 88%
    04:00 +3°C° 0 mm 1 mps 632 mmHg 86%
    05:00 +5°C° 0 mm 0 mps 633 mmHg 78%
    06:00 +7°C° 0 mm 0 mps 634 mmHg 69%
    07:00 +9°C° 0 mm 0 mps 635 mmHg 61%
    08:00 +12°C° 0 mm 1 mps 635 mmHg 57%
    09:00 +13°C° 0 mm 1 mps 635 mmHg 53%
    10:00 +15°C° 0 mm 2 mps 636 mmHg 49%
    11:00 +16°C° 0 mm 2 mps 636 mmHg 48%
    12:00 +16°C° 0 mm 2 mps 636 mmHg 47%
    13:00 +17°C° 0 mm 2 mps 636 mmHg 46%
    14:00 +17°C° 0 mm 3 mps 636 mmHg 49%
    15:00 +17°C° 0 mm 3 mps 636 mmHg 52%
    16:00 +16°C° 0 mm 3 mps 635 mmHg 54%
    17:00 +15°C° 0 mm 2 mps 635 mmHg 62%
    18:00 +14°C° 0 mm 2 mps 635 mmHg 69%
    19:00 +13°C° 0 mm 2 mps 635 mmHg 77%
    20:00 +11°C° 0 mm 1 mps 634 mmHg 83%
    21:00 +9°C° 0 mm 1 mps 634 mmHg 90%
    22:00 +6°C° 0 mm 0 mps 633 mmHg 96%
    23:00 +7°C° 0 mm 1 mps 633 mmHg 95%

    2 June, Tuesday

    Time Temperature Precipitation Wind Pressure Humidity
    00:00 +6°C° 0 mm 1 mps 633 mmHg 95%
    01:00 +6°C° 0 mm 1 mps 633 mmHg 94%
    02:00 +6°C° 0 mm 1 mps 633 mmHg 94%
    03:00 +6°C° 0 mm 1 mps 633 mmHg 93%
    04:00 +6°C° 0 mm 1 mps 633 mmHg 92%
    05:00 +8°C° 0 mm 1 mps 633 mmHg 86%
    06:00 +10°C° 0 mm 1 mps 634 mmHg 80%
    07:00 +11°C° 0 mm 0 mps 635 mmHg 74%
    08:00 +14°C° 0 mm 1 mps 635 mmHg 65%
    09:00 +15°C° 0 mm 1 mps 636 mmHg 56%
    10:00 +17°C° 0 mm 2 mps 636 mmHg 47%
    11:00 +18°C° 0 mm 2 mps 636 mmHg 44%
    12:00 +18°C° 0 mm 2 mps 636 mmHg 42%
    13:00 +19°C° 0 mm 2 mps 636 mmHg 39%
    14:00 +19°C° 0.1 mm 2 mps 636 mmHg 43%
    15:00 +18°C° 0.1 mm 3 mps 635 mmHg 46%
    16:00 +18°C° 0.1 mm 3 mps 635 mmHg 50%
    17:00 +16°C° 0.3 mm 2 mps 634 mmHg 60%
    18:00 +15°C° 0.3 mm 2 mps 634 mmHg 70%
    19:00 +14°C° 0.3 mm 1 mps 633 mmHg 80%
    20:00 +12°C° 0.3 mm 1 mps 633 mmHg 84%
    21:00 +10°C° 0.3 mm 1 mps 632 mmHg 88%
    22:00 +7°C° 0.3 mm 0 mps 632 mmHg 92%
    23:00 +7°C° 0 mm 0 mps 632 mmHg 92%

    3 June, Wednesday

    Time Temperature Precipitation Wind Pressure Humidity
    00:00 +8°C° 0 mm 1 mps 631 mmHg 91%
    01:00 +8°C° 0 mm 1 mps 631 mmHg 91%
    02:00 +8°C° 0 mm 1 mps 631 mmHg 90%
    03:00 +8°C° 0 mm 1 mps 630 mmHg 89%
    04:00 +7°C° 0 mm 1 mps 630 mmHg 89%
    05:00 +9°C° 0 mm 1 mps 631 mmHg 84%
    06:00 +11°C° 0 mm 1 mps 631 mmHg 79%
    07:00 +13°C° 0 mm 1 mps 632 mmHg 74%
    08:00 +14°C° 0 mm 1 mps 632 mmHg 66%
    09:00 +16°C° 0 mm 1 mps 632 mmHg 58%
    10:00 +19°C° 0 mm 1 mps 633 mmHg 51%
    11:00 +19°C° 0.3 mm 1 mps 633 mmHg 50%
    12:00 +19°C° 0.3 mm 1 mps 632 mmHg 50%
    13:00 +18°C° 0.3 mm 2 mps 632 mmHg 50%
    14:00 +18°C° 1.2 mm 1 mps 631 mmHg 60%
    15:00 +15°C° 1.2 mm 1 mps 631 mmHg 70%
    16:00 +14°C° 1.2 mm 1 mps 630 mmHg 80%
    17:00 +13°C° 1.2 mm 1 mps 630 mmHg 84%
    18:00 +12°C° 1.2 mm 1 mps 629 mmHg 87%
    19:00 +11°C° 1.2 mm 1 mps 629 mmHg 91%
    20:00 +11°C° 0.8 mm 1 mps 629 mmHg 92%
    21:00 +11°C° 0.8 mm 1 mps 629 mmHg 94%
    22:00 +10°C° 0.8 mm 1 mps 629 mmHg 95%
    23:00 +10°C° 0.3 mm 1 mps 629 mmHg 95%
    Show more